TimeCST,TemperatureF,Dew PointF,Humidity,Sea Level PressureIn,VisibilityMPH,Wind Direction,Wind SpeedMPH,Gust SpeedMPH,PrecipitationIn,Events,Conditions,WindDirDegrees,DateUTC
12:52 AM,46.0,-9999,N/A,29.98,0.5,WNW,4.6,-,0.01,Rain,Light Rain,290,2013-01-10 06:52:00
12:59 AM,46.4,-9999,N/A,29.98,2.0,WSW,9.2,-,0.00,Rain,Light Rain,250,2013-01-10 06:59:00
1:17 AM,46.4,-9999,N/A,30.00,2.0,SSW,5.8,-,0.04,Rain,Rain,200,2013-01-10 07:17:00
1:52 AM,45.0,-9999,N/A,29.93,9.0,WSW,10.4,-,0.11,,Scattered Clouds,250,2013-01-10 07:52:00
2:34 AM,46.4,-9999,N/A,29.95,10.0,SW,6.9,-,N/A,,Mostly Cloudy,230,2013-01-10 08:34:00
2:52 AM,46.0,-9999,N/A,29.94,10.0,Calm,Calm,-,N/A,,Overcast,0,2013-01-10 08:52:00
3:02 AM,46.4,-9999,N/A,29.94,10.0,Calm,Calm,-,N/A,,Overcast,0,2013-01-10 09:02:00
3:09 AM,46.4,-9999,N/A,29.94,10.0,Calm,Calm,-,N/A,,Overcast,0,2013-01-10 09:09:00
3:52 AM,46.0,-9999,N/A,29.92,10.0,Calm,Calm,-,N/A,,Overcast,0,2013-01-10 09:52:00
4:52 AM,46.0,-9999,N/A,29.91,10.0,SSW,4.6,-,N/A,,Overcast,200,2013-01-10 10:52:00
6:48 AM,46.4,46.4,100,29.92,10.0,SSW,9.2,-,0.00,,Overcast,200,2013-01-10 12:48:00
6:52 AM,46.0,46.0,100,29.91,10.0,SSW,12.7,-,0.00,,Overcast,210,2013-01-10 12:52:00
7:52 AM,46.0,46.0,100,29.95,9.0,WSW,9.2,-,N/A,,Overcast,240,2013-01-10 13:52:00
7:55 AM,46.4,46.4,100,29.96,1.0,SW,9.2,-,N/A,,Overcast,230,2013-01-10 13:55:00
8:08 AM,46.4,46.4,100,29.96,3.0,WSW,6.9,-,0.00,,Overcast,240,2013-01-10 14:08:00
8:19 AM,46.4,46.4,100,29.95,10.0,SW,8.1,-,0.00,,Overcast,230,2013-01-10 14:19:00
8:37 AM,46.4,46.4,100,29.95,10.0,SW,9.2,-,0.00,,Overcast,230,2013-01-10 14:37:00
8:52 AM,46.0,46.0,100,29.94,10.0,SW,8.1,-,0.00,,Mostly Cloudy,230,2013-01-10 14:52:00
9:10 AM,46.4,46.4,100,29.94,10.0,SW,9.2,-,N/A,,Mostly Cloudy,220,2013-01-10 15:10:00
9:21 AM,46.4,46.4,100,29.94,10.0,SW,10.4,-,N/A,,Mostly Cloudy,230,2013-01-10 15:21:00
9:52 AM,48.0,46.9,96,29.95,10.0,WSW,16.1,-,N/A,,Overcast,240,2013-01-10 15:52:00
10:52 AM,48.9,48.9,100,29.94,10.0,SW,16.1,-,N/A,,Overcast,230,2013-01-10 16:52:00
11:33 AM,51.8,48.2,88,29.95,10.0,West,16.1,-,N/A,,Overcast,260,2013-01-10 17:33:00
11:52 AM,52.0,46.9,83,29.93,10.0,West,17.3,23.0,N/A,,Overcast,270,2013-01-10 17:52:00
1:44 PM,55.4,44.6,67,29.89,10.0,WNW,11.5,-,N/A,,Scattered Clouds,290,2013-01-10 19:44:00
2:52 PM,59.0,46.0,62,29.87,10.0,West,9.2,-,N/A,,Scattered Clouds,280,2013-01-10 20:52:00
3:52 PM,60.1,45.0,57,29.88,10.0,West,8.1,-,N/A,,Clear,270,2013-01-10 21:52:00
4:52 PM,57.9,44.1,60,29.89,10.0,WSW,6.9,-,N/A,,Partly Cloudy,250,2013-01-10 22:52:00
5:52 PM,54.0,45.0,72,29.90,10.0,SW,4.6,-,N/A,,Scattered Clouds,220,2013-01-10 23:52:00
6:52 PM,51.1,45.0,80,29.91,10.0,SSW,5.8,-,N/A,,Clear,210,2013-01-11 00:52:00
7:52 PM,48.0,45.0,89,29.88,10.0,South,6.9,-,N/A,,Clear,170,2013-01-11 01:52:00
8:52 PM,48.9,45.0,86,29.91,10.0,SSW,8.1,-,N/A,,Clear,200,2013-01-11 02:52:00
9:52 PM,46.9,43.0,86,29.90,10.0,South,9.2,-,N/A,,Clear,170,2013-01-11 03:52:00
10:52 PM,48.0,41.0,77,29.88,10.0,South,5.8,-,N/A,,Clear,180,2013-01-11 04:52:00